Dewpoint
54 54 53 53 53 52 52 52 52 53 53 53 53 53 53 53 53 54 54 55 55 56 56 56 56 56 55 56 55 55 54 54 54 54 54 54 53 53 53 53 53 53 53 51 51 50 50 49 49 49 49 49 49 49 49 49 49 48 47 47 47 47 47 46 46 46 46 46 47
54 54 54 54 53 53 52 52 52 53 53 53 53 53 53 53 53 54 54 55 55 56 56 56 56 55 55 56 55 55 54 54 54 54 54 54 53 52 52 53 53 53 52 51 50 49 49 49 49 49 49 49 49 49 49 49 49 48 47 47 47 47 47 47 46 46 47 47 48
54 54 55 54 54 53 52 51 52 53 53 53 53 53 53 54 53 54 55 55 55 56 56 55 55 55 55 55 55 55 54 54 55 56 55 54 52 52 52 53 54 53 51 50 50 49 49 49 49 49 49 49 49 49 48 48 48 48 47 47 47 47 47 47 47 47 48 48 48
56 55 55 54 54 53 52 51 51 52 53 53 53 53 53 54 54 54 55 55 55 55 55 55 54 54 55 55 54 54 54 55 56 56 55 53 52 52 53 54 54 53 51 50 49 49 49 48 49 49 49 49 49 48 48 48 48 48 47 47 47 47 47 47 47 48 48 49 49
56 56 55 55 54 54 52 51 51 52 53 53 53 53 53 54 54 54 54 54 55 55 55 55 54 54 54 54 54 54 55 55 57 57 55 53 53 53 54 55 54 53 51 50 49 49 49 49 49 49 49 49 49 49 48 48 48 48 47 48 48 47 47 47 48 48 49 49 49
57 56 56 56 55 54 53 52 52 52 53 54 54 53 52 53 54 54 54 54 55 55 55 54 54 54 54 54 54 54 55 55 56 57 56 55 55 55 55 55 53 51 50 49 49 49 49 49 49 49 49 49 49 49 49 49 48 48 48 48 48 48 48 48 49 49 49 49 49
57 57 57 57 56 54 54 53 53 53 53 54 54 54 54 54 55 54 54 54 55 55 55 54 54 54 54 54 55 55 56 56 56 56 57 56 56 55 54 53 51 50 50 49 49 49 49 49 49 49 49 49 49 49 49 49 49 48 48 48 49 49 49 49 50 50 50 49 49
58 58 58 58 57 55 54 53 53 53 54 54 54 54 55 55 56 56 55 55 55 54 54 54 54 54 55 56 56 56 56 55 55 55 56 57 56 54 53 51 49 49 49 49 49 49 49 49 49 49 49 49 49 49 49 49 49 49 48 48 49 49 50 51 52 51 51 50 51
59 58 58 58 57 56 54 54 54 54 54 54 54 54 55 56 56 56 56 55 54 54 54 54 54 55 57 57 57 56 56 55 55 55 55 54 54 53 51 49 49 49 49 49 49 49 49 49 49 49 49 49 48 49 49 49 49 49 49 49 49 50 51 51 52 52 51 52 52
58 58 57 57 56 55 55 54 55 55 55 54 54 55 56 56 57 57 57 56 54 54 54 54 55 56 57 57 56 56 56 55 54 54 53 52 52 51 50 49 49 48 48 49 49 49 49 49 49 49 49 49 49 49 49 49 49 49 49 50 50 51 51 51 52 52 52 52 53
58 57 56 56 56 56 55 56 56 56 55 55 55 56 57 57 58 58 57 55 55 55 54 54 55 56 57 56 56 55 55 54 53 52 51 50 50 49 49 49 49 48 48 48 49 49 49 49 49 49 49 49 49 49 49 49 49 49 49 50 51 51 51 51 51 52 52 52 53
57 57 57 57 57 57 56 57 57 56 56 56 57 57 58 58 58 58 56 56 57 56 55 54 56 56 56 56 55 55 54 53 51 50 49 49 49 49 49 49 48 48 48 48 49 49 49 49 49 49 49 49 49 49 49 49 49 49 49 50 51 51 51 51 51 51 52 52 53
57 58 58 58 58 58 57 57 58 57 57 58 57 58 59 59 58 57 57 57 57 57 56 55 56 56 56 56 55 54 53 51 50 49 49 49 49 49 49 49 48 48 48 49 49 49 49 49 49 49 49 49 49 49 49 49 49 49 49 50 50 50 50 51 51 51 52 52 53
58 58 59 59 59 58 58 57 58 58 58 58 58 58 59 59 58 57 57 57 57 57 57 56 56 56 56 55 54 53 51 49 49 49 49 49 48 48 48 48 48 48 48 49 49 49 49 49 49 49 49 49 49 49 49 49 49 49 49 49 49 50 50 51 51 52 53 53 54
58 58 59 60 59 59 59 58 59 59 59 59 59 59 59 58 58 57 57 57 57 57 57 57 57 56 56 55 53 51 50 49 49 49 48 48 48 48 48 48 48 48 48 48 49 49 49 49 49 49 49 49 49 49 49 49 49 49 50 50 50 50 51 52 52 53 53 54 54
57 58 59 59 60 60 60 60 60 60 59 59 59 59 59 58 58 57 57 57 57 57 57 56 56 56 55 54 52 50 49 49 49 49 48 48 48 48 48 48 48 48 48 48 48 48 49 49 49 49 49 49 49 49 49 49 49 50 50 51 51 51 52 52 53 53 54 54 54
57 57 58 58 59 60 60 60 60 60 59 59 59 59 58 58 58 57 57 57 57 57 56 56 56 56 54 52 51 50 50 49 49 49 48 48 48 48 48 48 48 48 48 48 48 48 49 49 49 50 50 50 50 50 50 49 50 50 51 51 52 52 53 53 53 54 54 55 55
57 58 58 58 59 60 60 60 60 60 59 59 59 58 58 58 58 57 57 57 57 56 56 56 56 54 53 51 50 50 50 49 49 49 49 49 48 48 48 48 48 48 48 48 48 48 49 49 50 50 51 51 51 51 51 51 51 51 52 52 53 54 54 54 54 55 55 55 56
58 58 59 59 60 60 60 59 60 60 59 59 59 58 58 58 58 57 57 57 56 56 56 55 55 54 52 51 51 50 50 50 50 49 49 49 49 49 49 48 48 48 49 49 49 49 49 49 50 50 51 51 52 52 52 52 52 52 53 54 54 55 55 55 56 56 56 56 56
58 59 59 60 60 60 60 59 60 60 59 59 58 58 58 58 58 57 57 57 57 56 56 55 54 53 52 51 51 51 50 50 50 50 50 49 49 49 49 49 49 49 49 50 50 50 50 50 50 51 51 52 52 52 53 53 53 54 54 54 55 56 56 56 57 57 56 56 55
58 58 59 60 60 60 60 60 60 59 59 58 58 58 58 58 58 57 57 57 57 56 55 54 53 52 52 51 51 51 51 51 51 50 50 50 50 50 50 50 50 50 50 51 51 51 51 51 51 52 52 52 53 53 54 54 54 55 55 55 55 55 55 56 56 55 54 54 54
58 58 59 59 60 60 60 60 59 59 59 58 58 58 58 58 58 58 57 57 57 56 55 54 53 52 52 52 51 51 51 51 51 51 51 51 51 51 51 51 51 51 51 52 52 52 52 52 53 53 54 54 54 54 54 55 55 55 54 54 54 54 54 54 54 53 53 52 52
58 59 59 60 60 59 59 59 59 58 58 58 58 58 58 58 58 58 57 57 57 56 55 54 53 53 53 52 52 52 52 52 52 52 52 52 52 52 52 53 52 52 53 53 54 54 54 54 55 56 57 58 57 56 55 55 55 54 54 54 53 53 53 53 52 52 51 51 51
59 59 60 60 60 59 58 58 58 58 58 58 58 58 58 57 57 57 57 57 56 56 55 54 54 53 53 53 53 53 53 53 53 53 53 53 53 53 54 54 53 54 54 54 55 55 55 56 58 58 59 59 57 56 56 55 54 54 53 52 51 51 51 50 50 50 49 49 49
59 60 60 60 59 58 58 58 58 57 57 57 57 57 57 56 56 56 56 56 56 56 55 55 54 54 53 53 53 53 54 54 54 54 54 54 54 54 54 55 54 54 54 54 54 54 55 55 57 58 59 58 56 55 54 54 53 52 51 50 49 49 49 49 48 48 48 49 48
60 59 59 59 58 58 58 58 57 57 57 57 57 57 56 56 56 56 56 56 56 55 55 54 54 54 54 54 54 54 54 54 54 54 55 55 55 56 56 56 55 55 55 54 54 54 54 55 55 56 57 57 55 54 54 53 51 50 50 49 49 48 48 47 47 47 46 46 46
59 59 58 58 58 58 57 57 57 57 57 56 56 56 56 56 56 56 55 55 55 54 54 54 54 54 55 55 55 55 55 56 55 55 55 55 55 55 56 56 55 55 55 54 54 54 55 55 55 55 56 56 55 54 54 53 51 51 50 50 49 49 48 47 46 46 45 45 45
58 58 58 58 58 57 57 57 57 57 57 56 55 55 55 56 55 55 55 55 54 54 54 55 55 55 55 55 55 55 55 55 55 55 55 54 55 55 55 56 55 55 54 54 54 55 55 55 55 54 54 54 54 54 53 52 51 50 50 49 49 48 48 47 46 46 45 45 45
57 57 57 57 57 57 57 57 57 57 56 56 56 56 56 56 55 55 55 54 54 55 55 55 55 55 55 55 55 55 55 55 54 54 54 54 54 54 54 54 54 54 54 54 54 54 54 54 54 54 53 53 54 53 52 51 49 49 49 49 49 48 48 47 47 46 46 45 45
57 57 57 57 56 56 56 57 57 57 56 56 56 56 56 56 55 55 55 55 55 55 56 56 55 54 54 55 55 55 55 55 54 54 53 54 54 54 53 53 53 53 53 53 54 54 53 53 52 52 52 52 52 52 51 50 49 49 49 48 48 48 47 47 47 46 46 45 44
56 56 56 56 56 56 56 56 57 56 56 57 56 56 56 56 55 55 55 55 55 55 55 55 54 54 54 54 55 55 55 54 53 53 52 52 52 53 53 52 52 52 52 52 52 52 52 51 51 50 50 50 50 49 49 48 48 48 47 47 47 47 47 46 46 46 45 45 44
55 55 55 55 56 56 56 56 56 56 56 56 56 55 55 55 55 54 54 55 55 55 55 54 54 54 54 54 54 54 54 53 53 52 52 51 51 51 51 51 51 51 51 51 51 51 50 50 49 49 49 48 48 47 47 46 46 46 46 46 46 46 46 45 46 45 45 45 44
55 55 55 55 55 56 56 56 55 55 55 55 54 54 54 54 54 54 54 54 55 54 54 54 54 53 53 53 53 53 52 52 51 51 51 51 51 51 50 50 50 50 50 50 50 49 49 49 49 48 48 47 47 46 45 45 45 45 45 45 45 45 46 45 45 45 45 45 44
55 54 54 55 55 55 55 54 54 54 54 53 53 53 53 53 53 53 54 54 54 54 54 53 53 53 53 53 52 52 51 50 50 50 50 50 50 50 50 49 49 49 49 49 49 49 49 48 48 47 47 46 46 46 45 45 44 44 44 44 44 45 45 45 45 45 45 45 43
54 54 54 54 54 54 53 53 52 52 52 52 52 52 53 53 52 53 53 53 53 53 53 53 53 52 52 52 51 50 49 49 49 49 49 49 49 49 49 49 49 49 49 49 49 48 48 48 47 46 46 46 45 45 45 44 44 43 43 43 43 43 44 44 44 45 45 44 43
53 53 52 52 52 51 51 51 50 50 50 50 51 52 52 52 52 52 52 52 52 52 52 52 52 51 51 50 50 49 49 48 48 48 48 48 48 48 48 48 48 48 48 48 48 47 47 47 46 46 45 45 45 44 44 43 43 43 43 43 42 42 42 43 43 44 44 45 44
52 51 51 50 50 50 49 49 49 49 49 49 50 51 52 52 52 52 52 52 51 51 51 51 50 50 50 49 49 49 49 49 48 47 47 47 47 47 47 47 47 47 47 47 47 47 46 46 45 45 45 44 44 43 43 43 43 42 42 42 42 42 42 42 43 43 44 44 45
51 51 50 49 49 49 49 49 49 49 49 49 50 50 51 51 51 51 51 51 50 50 50 50 49 49 49 49 49 49 49 49 48 47 47 47 47 47 47 47 47 47 46 46 46 46 46 45 45 45 44 44 43 43 43 43 42 42 42 42 42 42 42 43 43 43 43 44 44
51 50 50 49 49 49 48 48 48 49 49 49 49 49 50 50 50 50 50 50 50 49 49 49 49 49 49 49 49 48 48 48 47 47 46 46 46 46 47 46 46 46 46 45 45 45 45 45 45 44 44 43 43 43 42 42 42 42 41 42 42 42 42 43 43 43 43 43 43
50 49 49 49 49 48 48 48 48 49 49 49 49 49 49 49 49 49 49 49 49 49 49 49 49 49 48 48 48 47 47 47 47 46 45 45 45 45 45 45 45 45 45 45 45 45 45 45 44 44 44 43 43 42 42 42 41 41 41 41 41 42 42 43 43 43 43 43 43
48 48 48 48 48 48 48 48 48 48 49 49 49 49 49 49 49 49 49 49 49 49 49 48 48 48 48 47 47 47 46 46 46 45 45 44 44 44 45 44 44 44 44 44 44 44 44 44 44 43 43 43 42 42 42 41 41 41 41 41 41 42 42 43 43 43 43 43 43